When you browse on this site, cookies collect data to enhance your experience and personalize the content and advertising you see.
Visit our Privacy Policy to learn more. By continuing to use the site, you agree to this use of cookies and data.
  • In Schweiz
  • Länderverzeichnis
  • Für 7 Tage
  • Wassertemperatur
  • Satellitenkarten
  • Wetterkarte
  • Widgets
  • user-avatar
    Anmelden

    Stündliche Wetter Molepolole

    Heute, 22 Januar, Dienstag

    Zeit Temperatur Niederschläge Wind Luftdruck Luftfeuchtigkeit
    00:00 +25°C° 0 mm 2 m/S 665 mmHg 31%
    01:00 +25°C° 0 mm 2 m/S 665 mmHg 33%
    02:00 +24°C° 0 mm 1 m/S 665 mmHg 35%
    03:00 +23°C° 0 mm 1 m/S 665 mmHg 38%
    04:00 +23°C° 0 mm 1 m/S 665 mmHg 41%
    05:00 +20°C° 0 mm 0 m/S 664 mmHg 45%
    06:00 +23°C° 0 mm 1 m/S 665 mmHg 42%
    07:00 +25°C° 0 mm 1 m/S 665 mmHg 40%
    08:00 +26°C° 0 mm 2 m/S 666 mmHg 37%
    09:00 +28°C° 0 mm 2 m/S 666 mmHg 33%
    10:00 +30°C° 0 mm 2 m/S 666 mmHg 29%
    11:00 +32°C° 0 mm 2 m/S 667 mmHg 24%
    12:00 +34°C° 0 mm 2 m/S 666 mmHg 21%
    13:00 +35°C° 0 mm 3 m/S 666 mmHg 17%
    14:00 +36°C° 0 mm 4 m/S 665 mmHg 14%
    15:00 +37°C° 0 mm 3 m/S 665 mmHg 13%
    16:00 +37°C° 0 mm 3 m/S 664 mmHg 12%
    17:00 +37°C° 0 mm 2 m/S 664 mmHg 12%
    18:00 +35°C° 0 mm 2 m/S 663 mmHg 13%
    19:00 +32°C° 0 mm 2 m/S 663 mmHg 15%
    20:00 +30°C° 0 mm 2 m/S 663 mmHg 16%
    21:00 +30°C° 0 mm 2 m/S 663 mmHg 17%
    22:00 +29°C° 0 mm 2 m/S 663 mmHg 18%
    23:00 +28°C° 0 mm 2 m/S 663 mmHg 18%

    Morgen, 23 Januar, Mittwoch

    Zeit Temperatur Niederschläge Wind Luftdruck Luftfeuchtigkeit
    00:00 +28°C° 0 mm 2 m/S 663 mmHg 19%
    01:00 +27°C° 0 mm 3 m/S 662 mmHg 19%
    02:00 +27°C° 0 mm 3 m/S 662 mmHg 20%
    03:00 +26°C° 0 mm 2 m/S 662 mmHg 22%
    04:00 +25°C° 0 mm 2 m/S 662 mmHg 24%
    05:00 +24°C° 0 mm 1 m/S 662 mmHg 26%
    06:00 +26°C° 0 mm 1 m/S 662 mmHg 25%
    07:00 +27°C° 0 mm 2 m/S 663 mmHg 24%
    08:00 +29°C° 0 mm 2 m/S 664 mmHg 23%
    09:00 +31°C° 0 mm 2 m/S 664 mmHg 20%
    10:00 +34°C° 0 mm 2 m/S 665 mmHg 18%
    11:00 +36°C° 0 mm 2 m/S 665 mmHg 15%
    12:00 +37°C° 0 mm 2 m/S 664 mmHg 15%
    13:00 +37°C° 0 mm 1 m/S 664 mmHg 14%
    14:00 +39°C° 0 mm 1 m/S 664 mmHg 13%
    15:00 +39°C° 0 mm 1 m/S 663 mmHg 13%
    16:00 +39°C° 0 mm 2 m/S 662 mmHg 14%
    17:00 +39°C° 0 mm 2 m/S 662 mmHg 14%
    18:00 +37°C° 0 mm 2 m/S 662 mmHg 15%
    19:00 +35°C° 0 mm 1 m/S 662 mmHg 17%
    20:00 +34°C° 0 mm 1 m/S 662 mmHg 18%
    21:00 +33°C° 0 mm 1 m/S 662 mmHg 19%
    22:00 +32°C° 0 mm 1 m/S 662 mmHg 20%
    23:00 +31°C° 0 mm 1 m/S 662 mmHg 21%

    übermorgen, 24 Januar, Donnerstag

    Zeit Temperatur Niederschläge Wind Luftdruck Luftfeuchtigkeit
    00:00 +30°C° 0 mm 2 m/S 661 mmHg 22%
    01:00 +30°C° 0 mm 2 m/S 661 mmHg 23%
    02:00 +29°C° 0 mm 3 m/S 661 mmHg 24%
    03:00 +28°C° 0 mm 3 m/S 661 mmHg 25%
    04:00 +28°C° 0 mm 3 m/S 661 mmHg 26%
    05:00 +27°C° 0 mm 3 m/S 661 mmHg 27%
    06:00 +27°C° 0 mm 3 m/S 662 mmHg 28%
    07:00 +28°C° 0 mm 3 m/S 662 mmHg 30%
    08:00 +28°C° 0 mm 3 m/S 663 mmHg 31%
    09:00 +30°C° 0 mm 3 m/S 663 mmHg 28%
    10:00 +33°C° 0 mm 4 m/S 663 mmHg 26%
    11:00 +36°C° 0 mm 4 m/S 664 mmHg 23%
    12:00 +37°C° 0 mm 4 m/S 664 mmHg 21%
    13:00 +38°C° 0 mm 3 m/S 663 mmHg 18%
    14:00 +39°C° 0 mm 3 m/S 663 mmHg 16%
    15:00 +39°C° 0 mm 2 m/S 662 mmHg 16%
    16:00 +39°C° 0 mm 1 m/S 662 mmHg 15%
    17:00 +39°C° 0 mm 1 m/S 662 mmHg 15%
    18:00 +37°C° 0 mm 1 m/S 661 mmHg 17%
    19:00 +35°C° 0 mm 1 m/S 661 mmHg 18%
    20:00 +34°C° 0 mm 2 m/S 661 mmHg 20%
    21:00 +33°C° 0 mm 3 m/S 662 mmHg 23%
    22:00 +33°C° 0 mm 4 m/S 662 mmHg 26%
    23:00 +32°C° 0 mm 5 m/S 662 mmHg 29%

    25 Januar, Freitag

    Zeit Temperatur Niederschläge Wind Luftdruck Luftfeuchtigkeit
    00:00 +30°C° 0 mm 6 m/S 662 mmHg 32%
    01:00 +30°C° 0 mm 6 m/S 662 mmHg 36%
    02:00 +29°C° 0 mm 6 m/S 662 mmHg 40%
    03:00 +28°C° 0 mm 5 m/S 663 mmHg 40%
    04:00 +27°C° 0 mm 5 m/S 663 mmHg 41%
    05:00 +27°C° 0 mm 4 m/S 663 mmHg 41%
    06:00 +27°C° 0 mm 5 m/S 664 mmHg 42%
    07:00 +27°C° 0 mm 5 m/S 665 mmHg 43%
    08:00 +27°C° 0 mm 6 m/S 665 mmHg 44%
    09:00 +29°C° 0 mm 6 m/S 666 mmHg 42%
    10:00 +30°C° 0 mm 6 m/S 666 mmHg 40%
    11:00 +33°C° 0 mm 6 m/S 666 mmHg 37%
    12:00 +34°C° 0 mm 6 m/S 665 mmHg 34%
    13:00 +36°C° 0 mm 6 m/S 665 mmHg 30%
    14:00 +38°C° 0 mm 6 m/S 665 mmHg 26%
    15:00 +37°C° 0 mm 5 m/S 664 mmHg 24%
    16:00 +38°C° 0 mm 4 m/S 664 mmHg 22%
    17:00 +38°C° 0 mm 4 m/S 663 mmHg 20%
    18:00 +36°C° 0 mm 3 m/S 663 mmHg 22%
    19:00 +35°C° 0 mm 2 m/S 663 mmHg 25%
    20:00 +32°C° 0 mm 2 m/S 663 mmHg 27%
    21:00 +32°C° 0.3 mm 4 m/S 664 mmHg 34%
    22:00 +29°C° 0.3 mm 6 m/S 664 mmHg 42%
    23:00 +28°C° 0.3 mm 9 m/S 664 mmHg 49%

    26 Januar, Samstag

    Zeit Temperatur Niederschläge Wind Luftdruck Luftfeuchtigkeit
    00:00 +27°C° 0 mm 8 m/S 664 mmHg 52%
    01:00 +26°C° 0 mm 8 m/S 664 mmHg 54%
    02:00 +24°C° 0 mm 7 m/S 664 mmHg 56%
    03:00 +24°C° 0 mm 6 m/S 664 mmHg 56%
    04:00 +24°C° 0 mm 6 m/S 664 mmHg 56%
    05:00 +25°C° 0 mm 5 m/S 664 mmHg 56%
    06:00 +25°C° 0 mm 5 m/S 664 mmHg 57%
    07:00 +24°C° 0 mm 6 m/S 665 mmHg 58%
    08:00 +26°C° 0 mm 6 m/S 665 mmHg 60%
    09:00 +28°C° 0 mm 6 m/S 666 mmHg 53%
    10:00 +30°C° 0 mm 6 m/S 666 mmHg 45%
    11:00 +33°C° 0 mm 6 m/S 666 mmHg 38%
    12:00 +35°C° 0 mm 5 m/S 666 mmHg 34%
    13:00 +36°C° 0 mm 4 m/S 666 mmHg 30%
    14:00 +37°C° 0 mm 4 m/S 665 mmHg 26%
    15:00 +37°C° 0.1 mm 3 m/S 665 mmHg 27%
    16:00 +36°C° 0.1 mm 2 m/S 664 mmHg 29%
    17:00 +35°C° 0.1 mm 1 m/S 663 mmHg 30%
    18:00 +33°C° 0.7 mm 3 m/S 663 mmHg 39%
    19:00 +29°C° 0.7 mm 5 m/S 663 mmHg 48%
    20:00 +26°C° 0.7 mm 7 m/S 663 mmHg 57%
    21:00 +26°C° 1 mm 6 m/S 663 mmHg 58%
    22:00 +26°C° 1 mm 4 m/S 664 mmHg 58%
    23:00 +26°C° 1 mm 3 m/S 664 mmHg 59%

    27 Januar, Sonntag

    Zeit Temperatur Niederschläge Wind Luftdruck Luftfeuchtigkeit
    00:00 +25°C° 0 mm 4 m/S 664 mmHg 61%
    01:00 +25°C° 0 mm 5 m/S 663 mmHg 64%
    02:00 +23°C° 0 mm 7 m/S 663 mmHg 66%
    03:00 +23°C° 0 mm 6 m/S 663 mmHg 70%
    04:00 +22°C° 0 mm 5 m/S 663 mmHg 73%
    05:00 +22°C° 0 mm 5 m/S 663 mmHg 77%
    06:00 +22°C° 0 mm 6 m/S 664 mmHg 75%
    07:00 +22°C° 0 mm 7 m/S 664 mmHg 73%
    08:00 +23°C° 0 mm 8 m/S 665 mmHg 70%
    09:00 +24°C° 0 mm 7 m/S 665 mmHg 67%
    10:00 +26°C° 0 mm 7 m/S 666 mmHg 63%
    11:00 +27°C° 0 mm 7 m/S 666 mmHg 59%
    12:00 +29°C° 0 mm 6 m/S 665 mmHg 53%
    13:00 +32°C° 0 mm 5 m/S 665 mmHg 46%
    14:00 +34°C° 0 mm 5 m/S 665 mmHg 40%
    15:00 +35°C° 0 mm 4 m/S 664 mmHg 37%
    16:00 +35°C° 0 mm 4 m/S 664 mmHg 35%
    17:00 +36°C° 0 mm 4 m/S 663 mmHg 33%
    18:00 +34°C° 0 mm 4 m/S 663 mmHg 37%
    19:00 +33°C° 0 mm 5 m/S 663 mmHg 40%
    20:00 +30°C° 0 mm 5 m/S 663 mmHg 44%
    21:00 +29°C° 1.3 mm 5 m/S 663 mmHg 51%
    22:00 +27°C° 1.3 mm 5 m/S 664 mmHg 58%
    23:00 +25°C° 1.3 mm 4 m/S 664 mmHg 66%
    Mehr zeigen